Location: Bavegemberg
(50.9500°N, 3.8833°E)
Time: 05:27:03
(UTC+00:00)

Cosmos 1825 - Pass Details

Date: 23 May 2024
Orbit: 439 x 442 km, 82.5° (Epoch: 19 June)

Event Time Altitude Azimuth Distance (km) Brightness Sun altitude
Exits shadow 02:36:04 - 168° (SSE) 2,382 5.2 -8.8°
Reaches altitude 10° 02:38:06 10° 159° (SSE) 1,563 4.4 -8.5°
Maximum altitude 02:41:14 35° 93° (E) 749 3.4 -8.2°
Drops below altitude 10° 02:44:23 10° 27° (NNE) 1,582 6.1 -7.9°
Sets 02:46:34 0° 18° (NNE) 2,460 7.0 -7.6°
